DW4238 Weather Reports


time (UTC)temp
C
wind
direction
speed
KPH
gust
KPH
rain 1hr
cm
rain 24hr
cm
rain mn
cm
humidity
%
barometer
mb
20260503023028 20 261 0.0 0.0 0.00 0.00 0.00 60 1019.3
20260503022538 20 261 0.0 0.0 0.00 0.00 0.00 59 1019.4
20260503021559 20 261 0.0 3.2 0.00 0.00 0.00 60 1019.3
20260503021107 20 261 0.0 3.2 0.00 0.00 0.00 59 1019.3
20260503020611 20 261 1.6 3.2 0.00 0.00 0.00 59 1019.2
20260503020041 20 261 0.0 1.6 0.00 0.00 0.00 59 1018.9
20260503015553 20 261 0.0 0.0 0.00 0.00 0.00 59 1018.9
20260503014546 20 261 0.0 0.0 0.00 0.00 0.00 59 1018.9
20260503014035 20 261 0.0 0.0 0.00 0.00 0.00 60 1018.9
20260503013625 21 261 0.0 0.0 0.00 0.00 0.00 60 1018.9
20260503013044 21 261 0.0 0.0 0.00 0.00 0.00 59 1018.8
20260503012527 21 261 0.0 0.0 0.00 0.00 0.00 57 1018.7
20260503011555 22 261 0.0 1.6 0.00 0.00 0.00 56 1018.6
20260503011102 22 262 0.0 3.2 0.00 0.00 0.00 56 1018.5
20260503010104 22 332 0.0 1.6 0.00 0.00 0.00 54 1018.5
20260503005607 22 332 0.0 1.6 0.00 0.08 0.00 54 1018.4
20260503005117 22 9 0.0 1.6 0.00 0.08 0.00 53 1018.4
20260503004536 22 277 0.0 3.2 0.00 0.08 0.00 54 1018.4
20260503004048 22 317 1.6 3.2 0.00 0.08 0.00 54 1018.4
20260503003050 22 317 1.6 4.8 0.00 0.08 0.00 54 1018.4
20260503002600 23 242 0.0 4.8 0.00 0.08 0.00 55 1018.3
20260503001625 23 10 1.6 4.8 0.00 0.08 0.00 54 1018.2
20260503001035 23 10 4.8 6.4 0.00 0.08 0.00 52 1018.2
20260503000617 23 5 3.2 8.0 0.00 0.08 0.00 53 1018.2
20260503000041 23 24 4.8 9.7 0.00 0.23 0.00 51 1018.2
20260502235644 23 13 6.4 9.7 0.00 0.23 0.00 51 1018.2
20260502235134 23 337 4.8 9.7 0.00 0.23 0.00 51 1018.2
20260502234538 23 18 4.8 9.7 0.00 0.23 0.00 54 1018.1
20260502234043 23 294 4.8 11.3 0.00 0.23 0.00 52 1018.1
20260502233053 23 34 6.4 12.9 0.00 0.23 0.00 51 1018.0
20260502232553 23 16 6.4 14.5 0.00 0.23 0.00 51 1018.1
20260502232103 23 347 8.0 17.7 0.00 0.23 0.00 50 1018.0
20260502231526 23 32 11.3 17.7 0.00 0.23 0.00 51 1018.1
20260502231137 23 355 3.2 14.5 0.00 0.23 0.00 52 1018.1
20260502230616 23 51 6.4 17.7 0.00 0.23 0.00 51 1018.0
20260502230043 23 56 9.7 17.7 0.00 0.41 0.00 50 1018.0
20260502225554 23 42 8.0 17.7 0.00 0.41 0.00 52 1018.0
20260502224542 23 346 4.8 19.3 0.00 0.41 0.00 53 1018.1
20260502224053 23 344 9.7 19.3 0.00 0.41 0.00 51 1018.1
20260502223602 23 333 8.0 16.1 0.00 0.41 0.00 51 1018.1
20260502223027 23 54 8.0 14.5 0.00 0.41 0.00 52 1018.1
20260502222538 23 47 6.4 19.3 0.00 0.41 0.00 52 1018.1
20260502221556 23 65 6.4 19.3 0.00 0.41 0.00 52 1018.2
20260502221047 23 35 8.0 19.3 0.00 0.41 0.00 54 1018.2
20260502220606 23 315 8.0 19.3 0.00 0.41 0.00 51 1018.3
20260502220037 23 336 11.3 19.3 0.00 0.51 0.00 51 1018.2
20260502215548 23 331 12.9 19.3 0.00 0.51 0.00 52 1018.2
20260502214550 23 42 9.7 20.9 0.00 0.51 0.00 53 1018.3
20260502214054 23 92 6.4 17.7 0.00 0.51 0.00 52 1018.4
20260502213120 23 20 8.0 17.7 0.00 0.51 0.00 53 1018.4
20260502212602 23 19 8.0 17.7 0.00 0.51 0.00 53 1018.5
20260502212120 23 12 6.4 19.3 0.00 0.51 0.00 53 1018.6
20260502211033 22 333 6.4 19.3 0.00 0.51 0.00 56 1018.7
20260502210054 22 38 8.0 19.3 0.00 0.51 0.00 57 1018.8
20260502205604 22 60 12.9 19.3 0.00 0.79 0.00 53 1019.0
20260502204605 22 360 6.4 17.7 0.00 0.79 0.00 55 1019.0
20260502204118 22 46 11.3 20.9 0.00 0.79 0.00 54 1019.0
20260502203559 22 49 11.3 20.9 0.00 0.79 0.00 55 1019.1
20260502203029 22 360 11.3 20.9 0.00 0.79 0.00 56 1019.1
20260502202541 22 33 8.0 20.9 0.00 0.79 0.00 55 1019.1
20260502202123 22 329 11.3 19.3 0.00 0.79 0.00 56 1019.2
20260502201550 22 340 9.7 17.7 0.00 0.79 0.00 58 1019.2
20260502201053 22 32 6.4 22.5 0.00 0.79 0.00 58 1019.3
20260502200122 22 32 9.7 20.9 0.00 0.79 0.00 59 1019.4
20260502195625 22 5 11.3 17.7 0.00 0.97 0.00 56 1019.4
20260502194634 22 9 8.0 19.3 0.00 0.97 0.00 59 1019.4
20260502194115 21 5 9.7 16.1 0.00 0.97 0.00 59 1019.4
20260502193530 21 329 8.0 17.7 0.00 0.97 0.00 61 1019.5
20260502193032 21 38 9.7 19.3 0.00 0.97 0.00 60 1019.6
20260502192545 21 37 9.7 20.9 0.00 0.97 0.00 61 1019.6
20260502191603 21 24 8.0 20.9 0.00 0.97 0.00 63 1019.6
20260502191113 21 314 8.0 20.9 0.00 0.97 0.00 63 1019.7
20260502190617 21 309 12.9 20.9 0.00 0.97 0.00 61 1019.8
20260502190044 21 5 11.3 16.1 0.00 1.02 0.00 64 1019.8
20260502185549 21 329 6.4 17.7 0.00 1.02 0.00 61 1019.9
20260502185058 21 5 8.0 17.7 0.00 1.02 0.00 64 1020.1
20260502184531 21 355 12.9 19.3 0.00 1.02 0.00 63 1020.1
20260502184035 21 349 12.9 19.3 0.00 1.02 0.00 62 1020.1
20260502183034 21 322 6.4 19.3 0.00 1.02 0.00 64 1020.4
20260502182546 21 346 9.7 19.3 0.00 1.02 0.00 62 1020.4
20260502181609 20 16 4.8 20.9 0.00 1.02 0.00 64 1020.5
20260502181120 20 355 14.5 20.9 0.00 1.02 0.00 61 1020.5
20260502180623 20 303 12.9 19.3 0.00 1.02 0.00 63 1020.7
20260502170124 19 313 8.0 20.9 0.00 1.04 0.00 71 1021.1
20260502164035 18 30 9.7 19.3 0.00 1.14 0.00 72 1021.2
20260502163055 18 333 8.0 19.3 0.00 1.14 0.00 75 1021.3
20260502162608 18 40 11.3 19.3 0.00 1.14 0.00 73 1021.3
20260502161548 18 360 9.7 16.1 0.00 1.14 0.00 75 1021.2
20260502161056 18 327 6.4 17.7 0.00 1.14 0.00 76 1021.2
20260502152138 16 340 8.0 16.1 0.00 1.35 0.00 80 1021.0
20260502151548 16 23 6.4 16.1 0.00 1.35 0.00 80 1021.0
20260502151101 16 340 9.7 16.1 0.00 1.35 0.00 81 1021.1
20260502150600 16 19 9.7 17.7 0.00 1.35 0.00 80 1021.0
20260502130528 11 319 6.4 14.5 0.00 1.70 0.00 93 1019.8
20260502130138 11 319 8.0 12.9 0.00 1.70 0.00 93 1019.8
20260502123623 10 328 6.4 8.0 0.00 2.13 0.00 93 1019.4
20260502123054 10 311 4.8 8.0 0.00 2.13 0.00 93 1019.1
20260502122557 10 96 4.8 6.4 0.00 2.13 0.00 93 1019.1
20260502121617 10 324 4.8 6.4 0.00 2.13 0.00 93 1018.9
20260502121105 10 324 4.8 8.0 0.00 2.13 0.00 93 1018.8
20260502120616 10 324 4.8 8.0 0.00 2.13 0.00 93 1018.8
20260502115642 10 325 4.8 8.0 0.00 2.74 0.00 93 1018.7
20260502115123 10 298 4.8 8.0 0.00 2.74 0.00 93 1018.7
20260502114548 10 324 4.8 6.4 0.00 2.74 0.00 93 1018.6
20260502114102 10 322 4.8 8.0 0.00 2.74 0.00 93 1018.6
20260502113125 10 324 4.8 6.4 0.00 2.74 0.00 93 1018.5
20260502112604 10 325 4.8 8.0 0.00 2.74 0.00 93 1018.4
20260502112116 10 326 4.8 8.0 0.00 2.74 0.00 93 1018.4
20260502111542 10 327 4.8 8.0 0.00 2.74 0.00 93 1018.2
20260502111048 10 327 4.8 9.7 0.00 2.74 0.00 93 1018.1
20260502110056 10 346 6.4 8.0 0.00 2.74 0.00 93 1017.9
20260502105559 10 346 4.8 8.0 0.00 3.00 0.00 93 1017.9
20260502104620 10 9 3.2 6.4 0.00 3.00 0.00 93 1017.6
20260502104031 10 5 3.2 8.0 0.00 3.00 0.00 93 1017.6
20260502103534 10 355 3.2 8.0 0.00 3.00 0.00 93 1017.5
20260502103123 10 355 4.8 9.7 0.00 3.00 0.00 93 1017.6
20260502102533 10 360 3.2 9.7 0.00 3.00 0.00 93 1017.5
20260502102139 10 15 3.2 9.7 0.00 3.00 0.00 93 1017.5
20260502101543 10 9 4.8 9.7 0.00 3.00 0.00 93 1017.5
20260502101047 10 350 3.2 9.7 0.00 3.00 0.00 93 1017.5
20260502100114 10 355 6.4 9.7 0.00 3.00 0.00 93 1017.4
20260502091049 10 327 6.4 9.7 0.00 3.30 0.00 93 1017.0
20260502071534 11 26 3.2 9.7 0.00 3.84 0.00 92 1016.3
20260502071037 11 15 3.2 9.7 0.00 3.84 0.00 92 1016.2
20260502070645 11 350 6.4 9.7 0.00 3.84 0.00 92 1016.3
20260502070053 11 348 4.8 12.9 0.00 3.89 0.00 92 1016.4
20260502065602 11 360 6.4 8.0 0.00 3.89 0.00 91 1016.3
20260502065033 11 17 3.2 9.7 0.00 3.89 0.00 91 1016.3
20260502064544 11 25 3.2 9.7 0.00 3.89 0.00 91 1016.2
20260502064034 11 30 4.8 9.7 0.00 3.89 0.00 91 1016.3
20260502063545 11 30 4.8 8.0 0.00 3.89 0.00 92 1016.3
20260502063038 11 5 4.8 8.0 0.00 3.89 0.00 92 1016.3
20260502062527 11 351 4.8 9.7 0.00 3.89 0.00 92 1016.5
20260502062056 11 5 4.8 9.7 0.00 3.89 0.00 92 1016.5
20260502061527 11 30 4.8 12.9 0.00 3.89 0.00 92 1016.5
20260502061037 11 34 3.2 14.5 0.00 3.89 0.00 92 1016.5
20260502060553 11 11 8.0 14.5 0.00 3.89 0.00 92 1016.5
20260502060042 11 36 8.0 17.7 0.00 4.17 0.00 92 1016.5
20260502055532 11 31 8.0 17.7 0.00 4.17 0.00 92 1016.5
20260502055042 11 48 9.7 17.7 0.00 4.17 0.00 92 1016.5
20260502054601 11 26 8.0 16.1 0.00 4.17 0.00 92 1016.4
20260502054111 11 53 6.4 16.1 0.00 4.17 0.00 92 1016.4
20260502053534 11 39 4.8 16.1 0.00 4.17 0.00 92 1016.4
20260502053031 11 55 9.7 16.1 0.00 4.17 0.00 92 1016.4
20260502052609 11 52 8.0 14.5 0.00 4.17 0.00 92 1016.4
20260502052030 11 17 6.4 16.1 0.00 4.17 0.00 92 1016.4
20260502051550 11 36 8.0 16.1 0.00 4.17 0.00 92 1016.4
20260502051032 11 32 8.0 17.7 0.00 4.17 0.00 92 1016.4
20260502050608 11 28 9.7 17.7 0.00 4.17 0.00 92 1016.4
20260502050128 11 61 8.0 16.1 0.00 4.17 0.00 92 1016.4
20260502045530 11 32 9.7 20.9 0.00 4.39 4.17 92 1016.4
20260502044558 11 78 9.7 24.1 0.00 4.39 4.17 92 1016.1
20260502044103 11 39 12.9 20.9 0.00 4.39 4.17 92 1016.1
20260502043612 11 47 11.3 19.3 0.00 4.39 4.17 92 1016.1
20260502043042 11 20 8.0 20.9 0.00 4.39 4.17 92 1016.1
20260502042551 11 14 14.5 22.5 0.00 4.39 4.17 92 1016.1
20260502041609 11 28 11.3 25.7 0.00 4.39 4.17 92 1016.0
20260502041112 11 349 14.5 27.4 0.00 4.39 4.17 92 1016.0
20260502040623 11 35 17.7 27.4 0.00 4.39 4.17 92 1015.9
20260502040051 12 32 16.1 25.7 0.00 4.45 4.17 92 1015.9
20260502035533 12 19 12.9 17.7 0.00 4.45 4.17 93 1016.0
20260502034602 12 355 11.3 22.5 0.00 4.45 4.17 93 1016.0
20260502034106 12 14 11.3 19.3 0.00 4.45 4.17 93 1016.0
20260502033621 12 23 6.4 19.3 0.00 4.45 4.17 93 1016.1
20260502033039 12 31 9.7 19.3 0.00 4.45 4.17 93 1016.0
20260502032551 12 331 12.9 19.3 0.00 4.45 4.17 93 1016.0
20260502032103 12 15 9.7 19.3 0.00 4.45 4.17 93 1016.0
20260502031643 12 355 9.7 19.3 0.00 4.45 4.17 93 1015.9
20260502031135 12 32 11.3 17.7 0.00 4.45 4.17 93 1015.8
20260502030617 12 9 9.7 17.7 0.00 4.45 4.17 93 1015.6
20260502030044 12 345 8.0 22.5 0.00 4.45 4.17 93 1015.4
20260502025535 12 35 12.9 22.5 0.00 4.45 4.17 93 1015.3
20260502024555 12 28 14.5 24.1 0.00 4.45 4.17 93 1015.3
20260502024037 12 26 12.9 22.5 0.00 4.45 4.17 93 1015.2